^^
Saratoga-Weather Station Historical Data
Daily Summary for April 16, 2020 Units:  Metric    English   Both
Daily Weekly Monthly Yearly Custom
  High: Low: Average:
Temperature: 11.3 °C 9.6 °C 10.3 °C
Dew Point: 9 °C 7.1 °C 8.1 °C
Humidity: 92% 81% 87%
Wind Speed: 16.3km/h 0km/h 5.2km/h
Wind Gust: 25.7km/h - -
Wind- - West
Pressure: 1022.7 hPa 1008.5 hPa -
Precipitation: 0.5 mm    
Historical Graphs
 
 
Tabular Data for April 16, 2020
Time Temperature Dew Point Pressure Wind Wind Speed Wind Gust Humidity Rainfall Rate (Hourly) solar
00:00 10.8 °C 8 °C 1008.5 hPa West 13 km/h 12.9 km/h 83% 0.0 mm 0 W/m2
00:05 10.8 °C 8.2 °C 1008.8 hPa WNW 16.3 km/h 16.1 km/h 84% 0.0 mm 0 W/m2
00:10 10.7 °C 7.9 °C 1008.8 hPa West 6.4 km/h 19.3 km/h 83% 0.0 mm 0 W/m2
00:15 10.7 °C 7.9 °C 1008.8 hPa WNW 6.4 km/h 16.1 km/h 83% 0.0 mm 0 W/m2
00:20 10.7 °C 7.9 °C 1009.1 hPa West 6.4 km/h 20.9 km/h 83% 0.0 mm 0 W/m2
00:25 10.7 °C 7.9 °C 1009.1 hPa NW 7.9 km/h 14.5 km/h 83% 0.0 mm 0 W/m2
00:30 10.7 °C 7.9 °C 1009.1 hPa WNW 4.7 km/h 24.1 km/h 83% 0.0 mm 0 W/m2
00:35 10.6 °C 7.8 °C 1009.1 hPa West 6.4 km/h 12.9 km/h 83% 0.0 mm 0 W/m2
00:40 10.6 °C 7.8 °C 1009.1 hPa NW 9.7 km/h 16.1 km/h 83% 0.0 mm 0 W/m2
00:45 10.5 °C 7.6 °C 1009.1 hPa WNW 3.2 km/h 17.7 km/h 82% 0.0 mm 0 W/m2
00:50 10.5 °C 7.6 °C 1009.1 hPa WNW 14.3 km/h 22.5 km/h 82% 0.0 mm 0 W/m2
00:55 10.5 °C 7.6 °C 1009.1 hPa NW 4.7 km/h 14.5 km/h 82% 0.0 mm 0 W/m2
01:00 10.4 °C 7.5 °C 1009.1 hPa WNW 4.7 km/h 12.9 km/h 82% 0.0 mm 0 W/m2
01:05 10.4 °C 7.5 °C 1009.1 hPa WNW 4.7 km/h 12.9 km/h 82% 0.0 mm 0 W/m2
01:10 10.4 °C 7.5 °C 1009.1 hPa WNW 6.4 km/h 16.1 km/h 82% 0.0 mm 0 W/m2
01:15 10.4 °C 7.5 °C 1009.1 hPa West 3.2 km/h 12.9 km/h 82% 0.0 mm 0 W/m2
01:21 10.4 °C 7.5 °C 1009.1 hPa NNW 13 km/h 20.9 km/h 82% 0.0 mm 0 W/m2
01:26 10.4 °C 7.3 °C 1009.1 hPa North 6.4 km/h 14.5 km/h 81% 0.0 mm 0 W/m2
01:31 10.3 °C 7.4 °C 1009.1 hPa NW 4.7 km/h 20.9 km/h 82% 0.0 mm 0 W/m2
01:36 10.3 °C 7.4 °C 1009.1 hPa NW 4.7 km/h 16.1 km/h 82% 0.0 mm 0 W/m2
01:41 10.3 °C 7.4 °C 1009.1 hPa North 4.7 km/h 20.9 km/h 82% 0.0 mm 0 W/m2
01:46 10.3 °C 7.4 °C 1009.5 hPa WNW 13 km/h 12.9 km/h 82% 0.0 mm 0 W/m2
01:51 10.3 °C 7.2 °C 1009.5 hPa West 4.7 km/h 14.5 km/h 81% 0.0 mm 0 W/m2
01:56 10.3 °C 7.2 °C 1009.5 hPa NW 6.4 km/h 9.7 km/h 81% 0.0 mm 0 W/m2
02:01 10.2 °C 7.1 °C 1009.5 hPa NNW 4.7 km/h 11.3 km/h 81% 0.0 mm 0 W/m2
02:06 10.2 °C 7.1 °C 1009.8 hPa NNW 9.7 km/h 16.1 km/h 81% 0.0 mm 0 W/m2
02:11 10.2 °C 7.1 °C 1009.8 hPa West 6.4 km/h 6.4 km/h 81% 0.0 mm 0 W/m2
02:16 10.2 °C 7.1 °C 1010.2 hPa NW 9.7 km/h 14.5 km/h 81% 0.0 mm 0 W/m2
02:21 10.2 °C 7.1 °C 1010.2 hPa WNW 1.4 km/h 11.3 km/h 81% 0.0 mm 0 W/m2
02:26 10.1 °C 7.3 °C 1010.2 hPa WNW 11.1 km/h 14.5 km/h 83% 0.0 mm 0 W/m2
02:31 10 °C 7.2 °C 1010.5 hPa WNW 4.7 km/h 9.7 km/h 83% 0.0 mm 0 W/m2
02:36 10 °C 7.2 °C 1010.5 hPa West 4.7 km/h 11.3 km/h 83% 0.0 mm 0 W/m2
02:41 10.1 °C 7.2 °C 1010.5 hPa WNW 3.2 km/h 12.9 km/h 82% 0.0 mm 0 W/m2
02:46 10.1 °C 7.2 °C 1010.5 hPa WSW 3.2 km/h 11.3 km/h 82% 0.0 mm 0 W/m2
02:51 10.1 °C 7.3 °C 1010.8 hPa SW 4.7 km/h 11.3 km/h 83% 0.0 mm 0 W/m2
02:56 10.1 °C 7.3 °C 1010.8 hPa SW 3.2 km/h 12.9 km/h 83% 0.0 mm 0 W/m2
03:01 10.1 °C 7.2 °C 1010.8 hPa NNW 13 km/h 12.9 km/h 82% 0.0 mm 0 W/m2
03:06 10.2 °C 7.3 °C 1010.8 hPa NNW 3.2 km/h 19.3 km/h 82% 0.0 mm 0 W/m2
03:11 10.3 °C 7.4 °C 1010.8 hPa Calm   11.3 km/h 82% 0.0 mm 0 W/m2
03:16 10.3 °C 7.4 °C 1010.8 hPa WNW 11.1 km/h 19.3 km/h 82% 0.0 mm 0 W/m2
03:21 10.3 °C 7.4 °C 1010.8 hPa SSW 14.3 km/h 14.5 km/h 82% 0.0 mm 0 W/m2
03:26 10.3 °C 7.2 °C 1011.2 hPa NNW 7.9 km/h 17.7 km/h 81% 0.0 mm 0 W/m2
03:31 10.3 °C 7.2 °C 1011.2 hPa North 4.7 km/h 14.5 km/h 81% 0.0 mm 0 W/m2
03:36 10.3 °C 7.2 °C 1011.2 hPa NW 11.1 km/h 14.5 km/h 81% 0.0 mm 0 W/m2
03:41 10.3 °C 7.2 °C 1011.2 hPa SW 4.7 km/h 11.3 km/h 81% 0.0 mm 0 W/m2
03:46 10.3 °C 7.4 °C 1011.5 hPa SSW 11.1 km/h 19.3 km/h 82% 0.0 mm 0 W/m2
03:51 10.3 °C 7.4 °C 1011.5 hPa NW 3.2 km/h 19.3 km/h 82% 0.0 mm 0 W/m2
03:56 10.2 °C 7.3 °C 1011.5 hPa North 6.4 km/h 12.9 km/h 82% 0.0 mm 0 W/m2
04:01 10.2 °C 7.3 °C 1011.5 hPa NW 4.7 km/h 19.3 km/h 82% 0.0 mm 0 W/m2
04:06 10.2 °C 7.3 °C 1011.5 hPa West 9.7 km/h 12.9 km/h 82% 0.0 mm 0 W/m2
04:11 10.2 °C 7.4 °C 1011.5 hPa West 4.7 km/h 12.9 km/h 83% 0.0 mm 0 W/m2
04:16 10.1 °C 7.3 °C 1011.5 hPa SW 4.7 km/h 14.5 km/h 83% 0.0 mm 0 W/m2
04:21 10.1 °C 7.3 °C 1011.5 hPa North 4.7 km/h 6.4 km/h 83% 0.0 mm 0 W/m2
04:26 10.1 °C 7.5 °C 1011.2 hPa West 3.2 km/h 12.9 km/h 84% 0.0 mm 0 W/m2
04:31 9.9 °C 7.5 °C 1011.5 hPa SE 1.4 km/h 14.5 km/h 85% 0.0 mm 0 W/m2
04:36 9.8 °C 7.4 °C 1011.5 hPa WNW 1.4 km/h 14.5 km/h 85% 0.0 mm 0 W/m2
04:41 9.8 °C 7.6 °C 1011.5 hPa SSW 4.7 km/h 17.7 km/h 86% 0.0 mm 0 W/m2
04:46 9.8 °C 7.6 °C 1011.5 hPa ENE 1.4 km/h 14.5 km/h 86% 0.0 mm 0 W/m2
04:51 9.8 °C 7.6 °C 1011.5 hPa SW 4.7 km/h 17.7 km/h 86% 0.0 mm 0 W/m2
04:56 9.8 °C 7.6 °C 1011.5 hPa NW 7.9 km/h 17.7 km/h 86% 0.0 mm 0 W/m2
05:01 9.8 °C 7.6 °C 1011.9 hPa WNW 11.1 km/h 12.9 km/h 86% 0.0 mm 0 W/m2
05:06 9.8 °C 7.6 °C 1011.9 hPa NE 4.7 km/h 11.3 km/h 86% 0.0 mm 0 W/m2
05:11 9.8 °C 7.6 °C 1011.9 hPa NNE 1.4 km/h 8 km/h 86% 0.0 mm 0 W/m2
05:16 9.7 °C 7.6 °C 1011.9 hPa SSW 3.2 km/h 9.7 km/h 87% 0.0 mm 0 W/m2
05:21 9.7 °C 7.6 °C 1011.9 hPa North 6.4 km/h 16.1 km/h 87% 0.0 mm 0 W/m2
05:26 9.6 °C 7.5 °C 1011.9 hPa NW 4.7 km/h 11.3 km/h 87% 0.0 mm 0 W/m2
05:31 9.7 °C 7.6 °C 1011.9 hPa West 11.1 km/h 16.1 km/h 87% 0.0 mm 0 W/m2
05:36 9.7 °C 7.6 °C 1012.2 hPa NW 6.4 km/h 9.7 km/h 87% 0.0 mm 0 W/m2
05:41 9.7 °C 7.6 °C 1012.2 hPa North 3.2 km/h 14.5 km/h 87% 0.0 mm 0 W/m2
05:46 9.7 °C 7.5 °C 1012.2 hPa NW 13 km/h 14.5 km/h 86% 0.0 mm 0 W/m2
05:51 9.7 °C 7.5 °C 1012.5 hPa SW 3.2 km/h 3.2 km/h 86% 0.0 mm 0 W/m2
05:56 9.8 °C 7.6 °C 1012.5 hPa NW 11.1 km/h 17.7 km/h 86% 0.0 mm 0 W/m2
06:01 9.8 °C 7.6 °C 1012.5 hPa NNW 6.4 km/h 14.5 km/h 86% 0.0 mm 0 W/m2
06:06 9.9 °C 7.5 °C 1012.5 hPa WNW 4.7 km/h 12.9 km/h 85% 0.0 mm 0 W/m2
06:11 9.9 °C 7.5 °C 1012.9 hPa SSE 7.9 km/h 8 km/h 85% 0.0 mm 0 W/m2
06:16 10 °C 7.6 °C 1012.9 hPa NE 1.4 km/h 6.4 km/h 85% 0.0 mm 0 W/m2
06:21 10 °C 7.6 °C 1012.9 hPa WNW 3.2 km/h 14.5 km/h 85% 0.0 mm 0 W/m2
06:26 10 °C 7.8 °C 1012.9 hPa NW 7.9 km/h 8 km/h 86% 0.0 mm 0 W/m2
06:31 10 °C 7.8 °C 1013.2 hPa NNE 4.7 km/h 11.3 km/h 86% 0.0 mm 0 W/m2
06:36 9.9 °C 7.7 °C 1013.2 hPa WNW 3.2 km/h 11.3 km/h 86% 0.0 mm 0 W/m2
06:41 9.9 °C 7.7 °C 1013.2 hPa SSW 1.4 km/h 25.7 km/h 86% 0.0 mm 0 W/m2
06:46 10 °C 7.8 °C 1013.2 hPa West 4.7 km/h 17.7 km/h 86% 0.0 mm 0 W/m2
06:51 10 °C 7.8 °C 1013.2 hPa West 6.4 km/h 25.7 km/h 86% 0.0 mm 0 W/m2
06:56 10 °C 7.8 °C 1013.5 hPa WSW 13 km/h 14.5 km/h 86% 0.0 mm 0 W/m2
07:01 10 °C 7.8 °C 1013.5 hPa NW 3.2 km/h 9.7 km/h 86% 0.0 mm 0 W/m2
07:06 10 °C 7.8 °C 1013.5 hPa West 1.4 km/h 4.8 km/h 86% 0.0 mm 0 W/m2
07:11 10 °C 7.8 °C 1013.5 hPa West 6.4 km/h 12.9 km/h 86% 0.0 mm 0 W/m2
07:16 10 °C 7.8 °C 1013.5 hPa NW 1.4 km/h 9.7 km/h 86% 0.0 mm 0 W/m2
07:21 10 °C 7.8 °C 1013.5 hPa NW 9.7 km/h 19.3 km/h 86% 0.0 mm 0 W/m2
07:26 10 °C 7.8 °C 1013.5 hPa West 6.4 km/h 14.5 km/h 86% 0.0 mm 0 W/m2
07:31 10 °C 7.8 °C 1013.5 hPa Calm   19.3 km/h 86% 0.0 mm 0 W/m2
07:36 10 °C 7.8 °C 1013.9 hPa Calm   14.5 km/h 86% 0.0 mm 0 W/m2
07:41 10 °C 7.8 °C 1014.2 hPa WNW 3.2 km/h 6.4 km/h 86% 0.0 mm 0 W/m2
07:46 10 °C 7.8 °C 1013.9 hPa NW 4.7 km/h 14.5 km/h 86% 0.0 mm 0 W/m2
07:51 10.1 °C 7.9 °C 1014.2 hPa West 6.4 km/h 11.3 km/h 86% 0.0 mm 0 W/m2
07:56 10.1 °C 8 °C 1014.2 hPa NNW 4.7 km/h 6.4 km/h 87% 0.0 mm 0 W/m2
08:01 10.1 °C 8 °C 1014.2 hPa West 6.4 km/h 12.9 km/h 87% 0.0 mm 7 W/m2
08:06 9.9 °C 8 °C 1014.2 hPa NNW 3.2 km/h 6.4 km/h 88% 0.0 mm 7 W/m2
08:11 9.8 °C 7.9 °C 1014.6 hPa SE 3.2 km/h 6.4 km/h 88% 0.0 mm 5 W/m2
08:16 9.8 °C 8.1 °C 1014.6 hPa WNW 3.2 km/h 6.4 km/h 89% 0.0 mm 5 W/m2
08:21 9.8 °C 8.1 °C 1014.9 hPa NNE 3.2 km/h 6.4 km/h 89% 0.0 mm 19 W/m2
08:26 9.8 °C 8.2 °C 1014.9 hPa WNW 3.2 km/h 8 km/h 90% 0.0 mm 18 W/m2
08:31 9.7 °C 8.1 °C 1015.2 hPa WNW 3.2 km/h 9.7 km/h 90% 0.0 mm 11 W/m2
08:36 9.7 °C 8.1 °C 1015.2 hPa WNW 11.1 km/h 11.3 km/h 90% 0.0 mm 9 W/m2
08:41 9.8 °C 8.2 °C 1015.2 hPa South 3.2 km/h 11.3 km/h 90% 0.0 mm 12 W/m2
08:46 9.8 °C 8.2 °C 1015.2 hPa WNW 3.2 km/h 6.4 km/h 90% 0.0 mm 11 W/m2
08:51 9.8 °C 8.2 °C 1015.2 hPa SE 7.9 km/h 8 km/h 90% 0.0 mm 12 W/m2
08:56 9.8 °C 8.2 °C 1015.2 hPa NW 3.2 km/h 14.5 km/h 90% 0.0 mm 14 W/m2
09:01 9.8 °C 8.2 °C 1015.2 hPa WNW 1.4 km/h 4.8 km/h 90% 0.0 mm 21 W/m2
09:06 9.8 °C 8.2 °C 1015.6 hPa SE 6.4 km/h 6.4 km/h 90% 0.0 mm 28 W/m2
09:11 9.8 °C 8.2 °C 1015.6 hPa West 4.7 km/h 6.4 km/h 90% 0.0 mm 25 W/m2
09:16 9.8 °C 8.4 °C 1015.6 hPa NNW 3.2 km/h 6.4 km/h 91% 0.0 mm 39 W/m2
09:21 9.8 °C 8.4 °C 1015.6 hPa WSW 4.7 km/h 8 km/h 91% 0.0 mm 21 W/m2
09:26 9.8 °C 8.2 °C 1015.6 hPa West 3.2 km/h 12.9 km/h 90% 0.0 mm 23 W/m2
09:31 9.8 °C 8.4 °C 1015.9 hPa WNW 7.9 km/h 12.9 km/h 91% 0.0 mm 21 W/m2
09:36 9.8 °C 8.4 °C 1015.9 hPa WSW 1.4 km/h 11.3 km/h 91% 0.0 mm 23 W/m2
09:41 9.8 °C 8.4 °C 1015.9 hPa Calm   3.2 km/h 91% 0.0 mm 28 W/m2
09:46 9.8 °C 8.4 °C 1015.9 hPa West 1.4 km/h 8 km/h 91% 0.0 mm 21 W/m2
09:51 9.8 °C 8.4 °C 1015.9 hPa ENE 1.4 km/h 3.2 km/h 91% 0.0 mm 30 W/m2
09:56 9.8 °C 8.4 °C 1016.3 hPa NW 6.4 km/h 8 km/h 91% 0.0 mm 39 W/m2
10:01 9.8 °C 8.4 °C 1016.3 hPa SW 3.2 km/h 16.1 km/h 91% 0.0 mm 30 W/m2
10:07 9.9 °C 8.5 °C 1016.3 hPa NW 1.4 km/h 8 km/h 91% 0.0 mm 44 W/m2
10:12 9.9 °C 8.5 °C 1016.3 hPa NNE 1.4 km/h 6.4 km/h 91% 0.0 mm 37 W/m2
10:17 9.9 °C 8.5 °C 1016.3 hPa NNE 1.4 km/h 4.8 km/h 91% 0.2 mm 51 W/m2
10:22 10 °C 8.6 °C 1016.3 hPa SSW 4.7 km/h 6.4 km/h 91% 0.2 mm 72 W/m2
10:27 10.1 °C 8.7 °C 1016.3 hPa NW 3.2 km/h 12.9 km/h 91% 0.2 mm 49 W/m2
10:32 10.1 °C 8.5 °C 1016.6 hPa WNW 1.4 km/h 6.4 km/h 90% 0.2 mm 46 W/m2
10:37 10.1 °C 8.5 °C 1016.6 hPa North 4.7 km/h 4.8 km/h 90% 0.2 mm 49 W/m2
10:42 10.2 °C 8.6 °C 1016.6 hPa WSW 3.2 km/h 6.4 km/h 90% 0.2 mm 63 W/m2
10:47 10.2 °C 8.6 °C 1016.9 hPa West 4.7 km/h 17.7 km/h 90% 0.2 mm 76 W/m2
10:52 10.1 °C 8.7 °C 1016.9 hPa South 9.7 km/h 9.7 km/h 91% 0.2 mm 53 W/m2
10:57 10.1 °C 8.7 °C 1016.9 hPa NNW 3.2 km/h 17.7 km/h 91% 0.2 mm 81 W/m2
11:02 10.1 °C 8.7 °C 1016.9 hPa West 3.2 km/h 20.9 km/h 91% 0.2 mm 72 W/m2
11:07 10.1 °C 8.9 °C 1016.9 hPa West 3.2 km/h 6.4 km/h 92% 0.2 mm 76 W/m2
11:12 10.1 °C 8.9 °C 1016.9 hPa NW 1.4 km/h 6.4 km/h 92% 0.2 mm 72 W/m2
11:17 10.1 °C 8.9 °C 1016.9 hPa NNW 4.7 km/h 6.4 km/h 92% 0.0 mm 70 W/m2
11:22 10.2 °C 9 °C 1016.9 hPa NW 1.4 km/h 9.7 km/h 92% 0.0 mm 74 W/m2
11:27 10.2 °C 9 °C 1016.9 hPa South 3.2 km/h 6.4 km/h 92% 0.0 mm 102 W/m2
11:32 10.3 °C 8.9 °C 1017.3 hPa West 4.7 km/h 12.9 km/h 91% 0.0 mm 86 W/m2
11:37 10.3 °C 8.9 °C 1017.3 hPa WSW 6.4 km/h 8 km/h 91% 0.0 mm 100 W/m2
11:42 10.4 °C 9 °C 1017.3 hPa WNW 1.4 km/h 8 km/h 91% 0.0 mm 121 W/m2
11:47 10.5 °C 8.9 °C 1017.3 hPa Calm   16.1 km/h 90% 0.0 mm 156 W/m2
11:52 10.6 °C 8.9 °C 1017.3 hPa WNW 7.9 km/h 17.7 km/h 89% 0.0 mm 179 W/m2
11:57 10.7 °C 9 °C 1017.3 hPa WNW 11.1 km/h 16.1 km/h 89% 0.0 mm 148 W/m2
12:02 10.8 °C 8.9 °C 1017.3 hPa WSW 6.4 km/h 11.3 km/h 88% 0.0 mm 137 W/m2
12:07 10.8 °C 8.9 °C 1017.3 hPa WSW 4.7 km/h 11.3 km/h 88% 0.0 mm 116 W/m2
12:12 10.9 °C 9 °C 1017.6 hPa WNW 11.1 km/h 11.3 km/h 88% 0.0 mm 151 W/m2
12:17 10.9 °C 9 °C 1017.6 hPa NW 6.4 km/h 16.1 km/h 88% 0.0 mm 148 W/m2
12:22 10.9 °C 8.8 °C 1017.6 hPa WSW 6.4 km/h 17.7 km/h 87% 0.0 mm 105 W/m2
12:27 11 °C 8.9 °C 1018.0 hPa North 4.7 km/h 8 km/h 87% 0.0 mm 116 W/m2
12:32 11 °C 8.9 °C 1018.0 hPa NNW 3.2 km/h 17.7 km/h 87% 0.0 mm 137 W/m2
12:37 11.1 °C 9 °C 1018.0 hPa West 9.7 km/h 9.7 km/h 87% 0.0 mm 118 W/m2
12:42 11.2 °C 8.9 °C 1018.0 hPa WNW 1.4 km/h 19.3 km/h 86% 0.0 mm 105 W/m2
12:47 11.2 °C 8.9 °C 1018.0 hPa NW 4.7 km/h 12.9 km/h 86% 0.0 mm 109 W/m2
12:52 11.2 °C 8.8 °C 1018.0 hPa WSW 3.2 km/h 19.3 km/h 85% 0.0 mm 93 W/m2
12:57 11.3 °C 8.9 °C 1018.0 hPa WNW 3.2 km/h 12.9 km/h 85% 0.0 mm 105 W/m2
13:02 11.3 °C 8.7 °C 1018.0 hPa WSW 3.2 km/h 16.1 km/h 84% 0.0 mm 90 W/m2
13:07 11.3 °C 8.9 °C 1018.0 hPa SSW 14.3 km/h 19.3 km/h 85% 0.0 mm 120 W/m2
13:12 11.3 °C 8.9 °C 1018.0 hPa NNW 4.7 km/h 11.3 km/h 85% 0.0 mm 83 W/m2
13:17 11.3 °C 8.9 °C 1018.3 hPa SW 7.9 km/h 19.3 km/h 85% 0.0 mm 58 W/m2
13:22 11.2 °C 8.8 °C 1018.3 hPa West 3.2 km/h 11.3 km/h 85% 0.0 mm 58 W/m2
13:27 11.1 °C 9 °C 1018.3 hPa WNW 6.4 km/h 16.1 km/h 87% 0.0 mm 62 W/m2
13:32 10.8 °C 8.9 °C 1018.3 hPa WSW 6.4 km/h 11.3 km/h 88% 0.0 mm 130 W/m2
13:37 10.8 °C 8.9 °C 1018.3 hPa NW 13 km/h 12.9 km/h 88% 0.0 mm 149 W/m2
13:42 10.8 °C 8.9 °C 1018.3 hPa WSW 1.4 km/h 8 km/h 88% 0.0 mm 120 W/m2
13:47 10.9 °C 8.8 °C 1018.3 hPa WNW 14.3 km/h 14.5 km/h 87% 0.0 mm 179 W/m2
13:52 11.1 °C 9 °C 1018.3 hPa WNW 4.7 km/h 9.7 km/h 87% 0.0 mm 69 W/m2
13:57 11.1 °C 8.8 °C 1018.3 hPa West 1.4 km/h 14.5 km/h 86% 0.0 mm 107 W/m2
14:02 11.2 °C 8.8 °C 1018.3 hPa WNW 3.2 km/h 16.1 km/h 85% 0.0 mm 111 W/m2
14:07 11.2 °C 8.8 °C 1018.3 hPa West 6.4 km/h 12.9 km/h 85% 0.0 mm 60 W/m2
14:12 11.2 °C 8.8 °C 1018.6 hPa WNW 3.2 km/h 6.4 km/h 85% 0.0 mm 69 W/m2
14:17 11.2 °C 8.8 °C 1018.3 hPa WSW 6.4 km/h 12.9 km/h 85% 0.0 mm 84 W/m2
14:22 11.2 °C 8.8 °C 1018.3 hPa West 16.3 km/h 16.1 km/h 85% 0.0 mm 60 W/m2
14:27 11.2 °C 8.6 °C 1018.6 hPa West 9.7 km/h 17.7 km/h 84% 0.0 mm 70 W/m2
14:32 11.2 °C 8.8 °C 1018.3 hPa SW 7.9 km/h 14.5 km/h 85% 0.0 mm 77 W/m2
14:37 11.2 °C 8.8 °C 1018.6 hPa West 11.1 km/h 16.1 km/h 85% 0.0 mm 105 W/m2
14:42 11.2 °C 8.8 °C 1018.6 hPa NW 4.7 km/h 11.3 km/h 85% 0.0 mm 100 W/m2
14:47 11.2 °C 8.8 °C 1018.6 hPa NE 1.4 km/h 16.1 km/h 85% 0.0 mm 95 W/m2
14:52 11.3 °C 8.7 °C 1018.6 hPa NW 4.7 km/h 17.7 km/h 84% 0.0 mm 83 W/m2
14:57 11.3 °C 8.7 °C 1018.6 hPa NW 7.9 km/h 14.5 km/h 84% 0.0 mm 109 W/m2
15:02 11.2 °C 8.6 °C 1019.0 hPa SW 16.3 km/h 20.9 km/h 84% 0.0 mm 54 W/m2
15:07 11.2 °C 8.6 °C 1019.0 hPa WNW 4.7 km/h 11.3 km/h 84% 0.0 mm 33 W/m2
15:13 11.1 °C 8.7 °C 1019.0 hPa NW 3.2 km/h 17.7 km/h 85% 0.0 mm 37 W/m2
15:18 11.1 °C 8.7 °C 1019.0 hPa WNW 4.7 km/h 6.4 km/h 85% 0.0 mm 53 W/m2
15:23 11.1 °C 8.7 °C 1019.0 hPa West 3.2 km/h 12.9 km/h 85% 0.0 mm 51 W/m2
15:28 11.1 °C 8.7 °C 1019.3 hPa NW 6.4 km/h 11.3 km/h 85% 0.0 mm 65 W/m2
15:33 11 °C 8.6 °C 1019.3 hPa WNW 1.4 km/h 16.1 km/h 85% 0.0 mm 54 W/m2
15:38 11 °C 8.6 °C 1019.3 hPa NNW 4.7 km/h 14.5 km/h 85% 0.0 mm 42 W/m2
15:43 10.9 °C 8.6 °C 1019.6 hPa Calm   14.5 km/h 86% 0.0 mm 32 W/m2
15:48 10.9 °C 8.6 °C 1019.6 hPa West 11.1 km/h 11.3 km/h 86% 0.0 mm 30 W/m2
15:53 10.8 °C 8.7 °C 1019.6 hPa West 3.2 km/h 20.9 km/h 87% 0.0 mm 23 W/m2
15:58 10.7 °C 8.6 °C 1020.0 hPa West 6.4 km/h 16.1 km/h 87% 0.0 mm 25 W/m2
16:03 10.7 °C 8.6 °C 1019.6 hPa WNW 1.4 km/h 20.9 km/h 87% 0.0 mm 32 W/m2
16:08 10.7 °C 8.6 °C 1020.0 hPa WSW 7.9 km/h 11.3 km/h 87% 0.0 mm 25 W/m2
16:13 10.6 °C 8.5 °C 1019.6 hPa Calm   6.4 km/h 87% 0.0 mm 18 W/m2
16:18 10.6 °C 8.7 °C 1020.0 hPa NW 1.4 km/h 4.8 km/h 88% 0.0 mm 12 W/m2
16:23 10.5 °C 8.4 °C 1020.0 hPa NW 3.2 km/h 12.9 km/h 87% 0.0 mm 12 W/m2
16:28 10.5 °C 8.4 °C 1020.3 hPa WNW 3.2 km/h 9.7 km/h 87% 0.0 mm 11 W/m2
16:33 10.5 °C 8.4 °C 1020.3 hPa NW 3.2 km/h 12.9 km/h 87% 0.0 mm 9 W/m2
16:38 10.4 °C 8.3 °C 1020.3 hPa WNW 1.4 km/h 14.5 km/h 87% 0.0 mm 9 W/m2
16:43 10.4 °C 8.3 °C 1020.7 hPa NNW 6.4 km/h 8 km/h 87% 0.0 mm 7 W/m2
16:48 10.4 °C 8.3 °C 1020.3 hPa West 6.4 km/h 8 km/h 87% 0.0 mm 0 W/m2
16:53 10.4 °C 8.3 °C 1020.3 hPa Calm   3.2 km/h 87% 0.0 mm 0 W/m2
16:58 10.3 °C 8.2 °C 1020.7 hPa WNW 1.4 km/h 8 km/h 87% 0.0 mm 0 W/m2
17:03 10.3 °C 8.2 °C 1020.7 hPa WNW 3.2 km/h 6.4 km/h 87% 0.0 mm 0 W/m2
17:08 10.3 °C 8.2 °C 1020.7 hPa WNW 3.2 km/h 9.7 km/h 87% 0.0 mm 0 W/m2
17:13 10.3 °C 8.2 °C 1021.0 hPa West 3.2 km/h 9.7 km/h 87% 0.0 mm 0 W/m2
17:18 10.3 °C 8.2 °C 1021.0 hPa West 1.4 km/h 6.4 km/h 87% 0.0 mm 0 W/m2
17:23 10.3 °C 8.2 °C 1021.0 hPa NW 3.2 km/h 9.7 km/h 87% 0.0 mm 0 W/m2
17:28 10.3 °C 8.2 °C 1021.0 hPa WNW 6.4 km/h 11.3 km/h 87% 0.0 mm 0 W/m2
17:33 10.3 °C 8.2 °C 1021.0 hPa West 3.2 km/h 6.4 km/h 87% 0.0 mm 0 W/m2
17:38 10.3 °C 8.2 °C 1021.3 hPa WSW 1.4 km/h 6.4 km/h 87% 0.0 mm 0 W/m2
17:43 10.3 °C 8.2 °C 1021.3 hPa NE 3.2 km/h 6.4 km/h 87% 0.0 mm 0 W/m2
17:48 10.3 °C 8.2 °C 1021.3 hPa WNW 4.7 km/h 11.3 km/h 87% 0.0 mm 0 W/m2
17:53 10.3 °C 8.4 °C 1021.7 hPa WNW 7.9 km/h 9.7 km/h 88% 0.0 mm 0 W/m2
17:58 10 °C 8.3 °C 1021.3 hPa WNW 6.4 km/h 17.7 km/h 89% 0.2 mm 0 W/m2
18:03 9.8 °C 8.1 °C 1021.3 hPa WNW 11.1 km/h 17.7 km/h 89% 0.2 mm 0 W/m2
18:08 9.8 °C 8.2 °C 1021.7 hPa WNW 4.7 km/h 8 km/h 90% 0.2 mm 0 W/m2
18:13 9.7 °C 8.1 °C 1021.7 hPa Calm   17.7 km/h 90% 0.2 mm 0 W/m2
18:18 9.7 °C 8.3 °C 1021.7 hPa West 6.4 km/h 14.5 km/h 91% 0.2 mm 0 W/m2
18:23 9.6 °C 8.2 °C 1022.0 hPa Calm   6.4 km/h 91% 0.2 mm 0 W/m2
18:28 9.6 °C 8.2 °C 1022.0 hPa West 6.4 km/h 14.5 km/h 91% 0.2 mm 0 W/m2
18:33 9.7 °C 8.3 °C 1022.0 hPa SW 4.7 km/h 4.8 km/h 91% 0.2 mm 0 W/m2
18:38 9.6 °C 8.2 °C 1022.0 hPa WNW 1.4 km/h 11.3 km/h 91% 0.2 mm 0 W/m2
18:43 9.7 °C 8.3 °C 1022.4 hPa Calm   4.8 km/h 91% 0.2 mm 0 W/m2
18:48 9.7 °C 8.3 °C 1022.4 hPa West 3.2 km/h 4.8 km/h 91% 0.2 mm 0 W/m2
18:53 9.6 °C 8.2 °C 1022.4 hPa Calm   3.2 km/h 91% 0.2 mm 0 W/m2
18:58 9.6 °C 8.4 °C 1022.4 hPa West 4.7 km/h 4.8 km/h 92% 0.0 mm 0 W/m2
19:03 9.6 °C 8.4 °C 1022.4 hPa West 1.4 km/h 3.2 km/h 92% 0.0 mm 0 W/m2
19:08 9.7 °C 8.5 °C 1022.7 hPa WNW 4.7 km/h 9.7 km/h 92% 0.0 mm 0 W/m2
19:13 9.7 °C 8.5 °C 1022.4 hPa WNW 3.2 km/h 4.8 km/h 92% 0.0 mm 0 W/m2
19:18 9.7 °C 8.5 °C 1022.7 hPa WSW 3.2 km/h 6.4 km/h 92% 0.0 mm 0 W/m2
19:23 9.7 °C 8.5 °C 1022.7 hPa WNW 6.4 km/h 6.4 km/h 92% 0.0 mm 0 W/m2
19:28 9.7 °C 8.5 °C 1022.7 hPa WNW 3.2 km/h 6.4 km/h 92% 0.0 mm 0 W/m2
Juneau County Weather
Compliments of Weather Underground - 2 mb